This is the latest recevied weather packets stored in our database for station/object KD4MBW. If no packets are shown the sender has not sent any weather packets the latest 10 day(s).
| Time | Temp. | Humidity | Pressure | Rain* | Wind** | Luminosity | Snow |
|---|---|---|---|---|---|---|---|
| 1787757959 | 31.11° C | 75% | 1017.2 hPa | 0 mm | - | 624 W/m² | - |
| 1787757656 | 31.11° C | 75% | 1017.3 hPa | 0 mm | - | 616 W/m² | - |
| 1787757354 | 30.56° C | 77% | 1017.2 hPa | 0 mm | - | 602 W/m² | - |
| 1787757054 | 30.56° C | 77% | 1017.2 hPa | 0 mm | - | 585 W/m² | - |
| 1787756749 | 30° C | 79% | 1017.2 hPa | 0 mm | - | 574 W/m² | - |
| 1787756444 | 30.56° C | 81% | 1017.5 hPa | 0 mm | - | 560 W/m² | - |
| 1787756143 | 30° C | 81% | 1017.4 hPa | 0 mm | - | 550 W/m² | - |
| 1787755838 | 30° C | 79% | 1017.4 hPa | 0 mm | - | 538 W/m² | - |
| 1787755537 | 30° C | 80% | 1017.3 hPa | 0 mm | - | 529 W/m² | - |
| 1787755232 | 30.56° C | 82% | 1017.5 hPa | 0 mm | - | 511 W/m² | - |
| 1787754931 | 30° C | 82% | 1017.6 hPa | 0 mm | - | 501 W/m² | - |
| 1787754627 | 30° C | 83% | 1017.6 hPa | 0 mm | - | 488 W/m² | - |
| 1787754325 | 30° C | 84% | 1017.5 hPa | 0 mm | - | 450 W/m² | - |
| 1787754020 | 29.44° C | 85% | 1017.4 hPa | 0 mm | - | 455 W/m² | - |
| 1787753719 | 28.89° C | 85% | 1017.4 hPa | 0 mm | - | 439 W/m² | - |
| 1787753418 | 28.89° C | 87% | 1017.3 hPa | 0 mm | - | 430 W/m² | - |
| 1787753117 | 29.44° C | 87% | 1017.3 hPa | 0 mm | - | 413 W/m² | - |
| 1787752812 | 28.89° C | 87% | 1017.4 hPa | 0 mm | - | 394 W/m² | - |
| 1787752506 | 28.33° C | 87% | 1017.4 hPa | 0 mm | - | 380 W/m² | - |
| 1787752202 | 27.78° C | 88% | 1017.1 hPa | 0 mm | - | 366 W/m² | - |
| 1787751900 | 27.78° C | 87% | 1017 hPa | 0 mm | - | 349 W/m² | - |
| 1787751595 | 28.33° C | 89% | 1017.1 hPa | 0 mm | - | 331 W/m² | - |
| 1787751295 | 27.78° C | 89% | 1017.3 hPa | 0 mm | - | 315 W/m² | - |
| 1787750991 | 27.22° C | 90% | 1017.2 hPa | 0 mm | - | 302 W/m² | - |
| 1787750686 | 27.22° C | 89% | 1017 hPa | 0 mm | - | 283 W/m² | - |
* Rain latest hour (hover to see other rain measurements)
** Current wind speed in m/s (hover to see current wind gust speed)